Voltar ao catálogo

STARLINK-37310

AtivoComunicaçõesSSO
NORAD 68679·PAYLOAD·🇺🇸 United States

Lançado Apr 11, 2026 de Vandenberg Space Force Base

Loading…

Próximas Passagens (próximas 24 horas)

TLE

AtualizadoSource: CelesTrak SupGP

Época: Sep 14, 2026, 22:41 UTC

1 68679C 26077T   26257.94562500  .00059730  00000+0  18547-2 0  2578
2 68679  97.2846 127.9493 0002016  94.0950 272.4567 15.33398761    15

Acompanhe STARLINK-37310 em tempo real com AllMySat

Download on the App Store